Regional Weather Roundup
Issued by NWS

Home | Current Version | Previous Version | Graphics & Text | Print | Product List | Glossary On
Versions: 1 2 3 4 5 6 7 8 9 10 11 12 13 14 15 16 17 18 19 20 21 22 23 24 25 26 27 28 29 30 31 32 33 34 35 36 37 38 39 40 41 42 43 44 45 46 47 48 49 50
214
ASUS45 KPSR 220410
RWRAZ

ARIZONA HOURLY REGIONAL WEATHER ROUNDUP
NATIONAL WEATHER SERVICE PHOENIX AZ
900 PM MST THU SEP 21 2017

NOTE: FAIR INDICATES FEW OR NO CLOUDS BELOW 12,000 FEET WITH NO
SIGNIFICANT WEATHER AND/OR OBSTRUCTIONS TO VISIBILITY.

AZZ001>003-036-220500-
NORTHWEST ARIZONA

CITY           SKY/WX    TMP DP  RH WIND       PRES   REMARKS
BULLHEAD CITY  CLEAR     81  45  28 S14       29.62R
KINGMAN        MOCLDY    70  39  32 S20G26    29.75R
$$

AZZ004>008-015-016-018-220500-
NORTH CENTRAL ARIZONA

CITY           SKY/WX    TMP DP  RH WIND       PRES   REMARKS
GRAND CANYON   PTCLDY    59  36  42 S10G21    29.91S
WILLIAMS       PTCLDY    59  37  44 S14G22    29.92S
PRESCOTT       CLEAR     64  40  41 SW7       29.88R
FLAGSTAFF      CLEAR     57  35  43 SW12G23   29.95S
PAYSON           N/A     68  34  28 SW12G21   29.92R
PAGE           MOCLDY    74  35  24 S15G24    29.70S
$$

AZZ009>014-017-220500-
NORTHEAST ARIZONA

CITY           SKY/WX    TMP DP  RH WIND       PRES   REMARKS
WINSLOW        CLEAR     65  35  33 SW8       29.85S
SAINT JOHNS    CLEAR     70  40  33 SW14      29.92F
WINDOW ROCK    CLEAR     62  33  33 SW7       29.98S
SHOW LOW       CLEAR     64  37  36 S15G22    29.98S
$$

AZZ540-542>544-546-548-220500-
GREATER PHOENIX AREA

CITY           SKY/WX    TMP DP  RH WIND       PRES   REMARKS
PHOENIX        PTCLDY    87  31  13 SW16      29.66R
BUCKEYE          N/A     81  39  22 S13       29.68S
LUKE AFB       CLEAR     82  36  18 SW9       29.66R
DEER VALLEY    CLEAR     84  28  13 SW14      29.69R
SCOTTSDALE     CLEAR     86  26  11 SW9       29.70R
MESA-GATEWAY   CLEAR     82  30  15 W9        29.70S
CHANDLER       CLEAR     84  30  14 W6        29.68R
$$

AZZ539-553-220500-
SOUTHWEST MARICOPA COUNTY AND PINAL COUNTY

CITY           SKY/WX    TMP DP  RH WIND       PRES   REMARKS
CASA GRANDE    NOT AVBL
GILA BEND      CLEAR     82  37  19 SW14      29.66R
$$

AZZ503-504-507>509-220500-
SOUTHEAST ARIZONA

CITY           SKY/WX    TMP DP  RH WIND       PRES   REMARKS
TUCSON         CLEAR     83  53  35 SW7       29.81R
DAVIS-MONTHAN  CLEAR     80  46  29 SW8       29.79R
NOGALES        CLEAR     74  41  30 S7        29.91R
SIERRA VISTA   CLEAR     72  41  32 S7        29.97S
DOUGLAS        CLEAR     75  42  30 W9        29.93R
SAFFORD        PTCLDY    82  40  22 CALM      29.79S
$$

AZZ532-220500-
SOUTHWEST ARIZONA

CITY           SKY/WX    TMP DP  RH WIND       PRES   REMARKS
YUMA           PTCLDY    76  51  41 NW9       29.70R
$$

CAZ041-043-047-048-061-525>527-560>570-220500-
SOUTHERN CALIFORNIA

CITY           SKY/WX    TMP DP  RH WIND       PRES   REMARKS
DOWNTOWN L.A.  CLEAR     66  55  67 E5        29.82R
L.A. AIRPORT   CLEAR     64  55  72 E7        29.82R
SAN DIEGO      PTCLDY    66  52  60 NW6       29.89R
BURBANK        CLEAR     63  51  65 NE5       29.83R
ONTARIO        PTCLDY    61  46  57 W6        29.84R
RIVERSIDE      PTCLDY    62  48  60 VRB5      29.84R
PALM SPRINGS   CLEAR     76  41  28 MISG      29.71R
EL CENTRO NAS  CLEAR     72  49  44 W24G31    29.75R
IMPERIAL       CLEAR     72  52  49 W28G36    29.70S
BLYTHE         CLEAR     77  52  41 W23G29    29.66S
NEEDLES        CLEAR     81  45  28 NW14      29.65R
$$

NVZ020-UTZ003-220500-
SOUTHERN NEVADA-UTAH

CITY           SKY/WX    TMP DP  RH WIND       PRES   REMARKS
LAS VEGAS      PTCLDY    71  26  18 SW20G31   29.67R
SALT LAKE CITY RAIN      43  40  89 N10       29.86S FOG
$$

NMZ009-TXZ055-220500-
NEW MEXICO-WEST TEXAS

CITY           SKY/WX    TMP DP  RH WIND       PRES   REMARKS
ALBUQUERQUE    PTCLDY    72  34  24 S10       29.93R
EL PASO        PTCLDY    82  46  28 S7        29.89R
$$


........................KEY........................
SKY/WX - SKY CONDITION/WEATHER
TMP    - TEMPERATURE IN FAHRENHEIT
DP     - DEW POINT IN FAHRENHEIT
RH     - RELATIVE HUMIDITY IN PERCENT
WIND   - DIRECTION AND SPEED IN MILES PER HOUR (MPH)
VRB    - VARIABLE WIND DIRECTION
PRES   - MEAN SEA LEVEL PRESSURE IN INCHES OF MERCURY
         F - FALLING PRESSURE   R - RISING PRESSURE
         S - STEADY PRESSURE
VSB    - VISIBILITY IN MILES
HX     - HEAT INDEX IN FAHRENHEIT
WCI    - WIND CHILL INDEX IN FAHRENHEIT
TC     - TEMPERATURE IN CELSIUS WHICH IS ALSO KNOWN AS
         TEMPERATURE IN CENTIGRADE
AFB    - AIR FORCE BASE
         LUKE AFB IS LUKE AIR FORCE BASE
         DAVIS-MONTHAN IS DAVIS-MONTHAN AIR FORCE BASE
NAS    - NAVAL AIR STATION
         EL CENTRO NAS IS EL CENTRO NAVAL AIR STATION
N/A    - NOT AVAILABLE





USA.gov is the U.S. government's official web portal to all federal, state and local government web resources and services.